DELTA 1 DEB, 21493

Orbit data source: Space-Track

DELTA 1 DEB, 21493 is space debris in SSO originally from a launch on Thu, 12 Jun 1975 UTC launched from the Air Force Western Test Range (AFWTR). Debris objects in space refer to the collection of defunct objects orbiting the Earth. Examples of debris include non-operational satellites, rocket bodies, and fragments generated from explosions, collisions, or faulty payload assembly.

Loading next visibility...
Identifier
21493, 1975-052FN
Orbit
SSO
Country
Flag of USUS
Related business
Manufacturer
Unknown
Mission
Spacecraft
Bus & Motor
Unknown
Mass
Unknown
Launch date (UTC)
1975-06-12 (51 years ago)
Launch vehicle
Unknown
Launch site
Air Force Western Test Range (AFWTR)
Object type
Payload
Rocket body
Debris
Shape & HBR
Unknown shape, 0.1 m
Radar Cross Section
Small (<0.1 m²)

Expand to show TLE details & history
Last TLE update: 5 months ago

TLE from 5 months ago
0 DELTA 1 DEB
1 21493U 75052FN  25344.86209041 -.00006174  00000-0 -24110-1 0  9995
2 21493  99.6936 121.2352 0740536  51.0063  94.5783 12.21704990529400
Epoch: 2025-12-10T20:41Z
TLE epoch observation values (Epoch: 2025-12-10T20:41:24.611Z)
Latitude
25.67797°
Longitude
-84.25532°
Altitude
1,677.942 km
Speed
6.998 km/s
True Right ascension
20h 23m 41s
True Declination
25° 33' 33"
Sunlit
Object was in daylight at epoch
Visualization orbit readout
Latitude
Unknown
Longitude
Unknown
Altitude
Unknown
Speed
Unknown
Apparent Right ascension
Unknown
Apparent Declination
Unknown
Sunlit
N/A
Visualization observer readout
Local Sidereal Time
11:18:05
Azimuth
Unknown
Elevation
Unknown
Doppler factor
Unknown
Orbital elements
Apogee altitude
2,172.098 km
Perigee altitude
993.059 km
Semi-major axis
7,960.715 km
Eccentricity
0.07405
Inclination
99.6936°
RAAN
121.2352°
Arg. of periapsis
51.0063°
True anomaly
102.94528°
Mean anomaly
94.5783°
Eccentric anomaly
98.77163°
Mean motion
3.05573 °/min
Orbital period
117.81 mins
BSTAR
-0.02411
Loading maneuver chart data...
Computing Atmospheric mass density...
Loading historical data...
Loading historical data...
Loading historical data...
Loading historical data...
Loading historical data...
Loading historical data...
Loading historical data...

Documentation

Showing up to 5 results
|